FENGYUN 1C DEB, 31196

Orbit data source: Space-Track

FENGYUN 1C DEB, 31196 is space debris in SSO originally from a launch on Mon, 10 May 1999 UTC launched from the Taiyaun Space Center, China (TSC). Fengyun 1C debris stems from the Chinese weather satellite Fengyun-1C, which was intentionally destroyed by a Chinese anti-satellite missile in 2007. This event dramatically increased the amount of space debris, with thousands of trackable fragments posing hazards to satellites and human spaceflight. The Fengyun 1C debris cloud has become a focal point in discussions about space sustainability and the need for international regulations to prevent the creation of new debris.

Loading next visibility...
Identifier
31196, 1999-025BKA
Orbit
SSO
Country
Flag of CNCN / PRC
Related business
Manufacturer
Unknown
Mission
Spacecraft
Bus & Motor
Unknown
Mass
Unknown
Launch date (UTC)
1999-05-10 (27 years ago)
Launch vehicle
Unknown
Launch site
Taiyaun Space Center, China (TSC)
Object type
Payload
Rocket body
Debris
Shape & HBR
Unknown shape, 0.1 m
Radar Cross Section
Small (<0.1 m²)

Expand to show TLE details & history
Last TLE update: 1 day ago

TLE from 1 day ago
0 FENGYUN 1C DEB
1 31196U 99025BKA 26123.28955220  .00000955  00000-0  41177-3 0  9994
2 31196  98.5233 137.6220 0058747 157.6917 202.6838 14.25826302655121
Epoch: 2026-05-03T06:56Z
TLE epoch observation values (Epoch: 2026-05-03T06:56:57.310Z)
Latitude
-0.00002°
Longitude
172.18798°
Altitude
847.627 km
Speed
7.409 km/s
True Right ascension
09h 10m 29s
True Declination
0° 00' 00"
Sunlit
Object was in daylight at epoch
Visualization orbit readout
Latitude
Unknown
Longitude
Unknown
Altitude
Unknown
Speed
Unknown
Apparent Right ascension
Unknown
Apparent Declination
Unknown
Sunlit
N/A
Visualization observer readout
Local Sidereal Time
16:36:47
Azimuth
Unknown
Elevation
Unknown
Doppler factor
Unknown
Orbital elements
Apogee altitude
845.044 km
Perigee altitude
760.671 km
Semi-major axis
7,180.995 km
Eccentricity
0.00587
Inclination
98.5233°
RAAN
137.622°
Arg. of periapsis
157.6917°
True anomaly
202.42594°
Mean anomaly
202.6838°
Eccentric anomaly
202.55469°
Mean motion
3.5667 °/min
Orbital period
100.93 mins
BSTAR
0.00041177
Loading maneuver chart data...
Computing Atmospheric mass density...
Loading historical data...
Loading historical data...
Loading historical data...
Loading historical data...
Loading historical data...
Loading historical data...
Loading historical data...

Documentation

Showing up to 5 results
|